0 HST 1 20580U 90037B 25305.37367370 .00008514 00000-0 30155-3 0 9990 2 20580 28.4669 193.8827 0001953 126.3947 233.6828 15.27262832753667 0 ISS (ZARYA) 1 25544U 98067A 25305.52050362 .00011974 00000-0 21987-3 0 9990 2 25544 51.6344 346.5423 0004933 5.4437 354.6605 15.49679820536468 0 CXO 1 25867U 99040B 25306.94914393 .00000860 00000-0 00000-0 0 9992 2 25867 52.2511 124.0340 8210183 310.6072 0.2637 0.37806171 16460